Theta_e
315 318 320 320 319 318 318 319 318 318 318 319 320 320 319 318 318 317 319 319 316 316 316 316 317 315 315 315 314 315 315 315 316 316 316 316 315 312 311 310 309 308 307 306 305 304 303 303 303 303 303 303 303 303 304 305 305 306 308 309 310 311 312 313 316 319 321 321 322 322 322 322 322 322 322 322 323 323 322 322 321 321 320 320 320 320
316 320 321 319 318 318 319 320 319 319 318 318 319 319 319 319 319 318 319 318 314 315 316 316 316 315 315 315 314 315 315 316 317 317 316 313 312 311 310 309 308 307 306 305 304 303 303 302 302 302 302 302 302 303 303 304 304 305 306 307 308 309 310 310 312 315 317 318 319 319 319 320 320 319 320 319 320 320 320 319 319 319 318 318 318 319
319 320 319 318 318 318 319 319 319 318 318 319 319 320 321 320 319 319 318 316 314 314 316 316 315 315 314 314 314 314 316 317 317 315 313 311 310 310 308 308 307 306 305 304 303 303 302 301 301 301 301 301 301 301 301 302 303 304 305 305 306 307 307 308 309 310 313 315 316 316 317 317 318 318 317 318 317 318 318 318 317 317 316 316 316 316
321 319 317 317 318 318 318 319 319 319 319 320 320 320 321 320 320 320 318 315 314 314 315 316 315 314 314 314 315 315 317 316 313 311 311 311 310 308 308 307 306 305 304 303 302 302 301 301 300 301 301 301 301 301 300 300 301 302 303 303 304 305 305 306 307 308 310 312 313 313 313 313 314 314 314 314 313 313 314 315 315 314 314 313 314 314
321 320 318 318 318 318 318 319 320 320 319 321 322 321 320 319 320 320 317 316 315 316 316 316 317 318 317 318 317 317 318 315 311 310 310 310 310 308 308 307 306 305 303 302 302 301 300 300 299 300 300 300 300 300 300 300 300 301 301 302 302 303 304 305 305 306 307 308 309 309 309 310 310 310 310 310 310 310 310 310 311 311 310 311 311 312
319 319 319 319 318 319 320 319 320 321 321 321 323 323 320 318 320 319 318 318 318 320 317 316 322 323 320 321 320 318 319 314 310 310 309 309 309 307 306 306 306 305 303 302 301 300 300 299 299 299 299 299 299 300 300 299 299 299 300 300 301 302 303 303 304 305 306 306 307 307 307 307 308 308 308 308 308 308 308 308 308 308 308 308 308 309
318 317 319 320 319 321 322 320 320 321 320 320 323 323 319 317 319 319 318 319 321 322 318 315 322 322 319 320 319 319 319 313 309 310 309 308 307 306 306 305 304 304 303 302 301 300 299 298 298 298 298 298 298 298 299 299 299 299 299 299 299 300 301 302 303 304 304 305 305 305 306 306 306 306 306 306 306 306 306 306 306 306 306 305 305 306
318 318 319 319 319 321 322 321 320 320 320 322 322 320 318 316 318 319 318 320 321 320 318 317 319 320 320 320 318 319 318 313 309 310 309 308 307 305 305 305 304 303 302 302 301 300 299 298 298 298 297 297 297 297 297 298 298 298 298 298 298 299 299 300 301 302 303 303 303 304 304 304 304 304 304 305 304 304 304 304 304 304 304 304 303 303
318 321 322 320 320 321 321 320 321 319 320 322 320 316 316 316 316 317 319 320 319 319 320 320 319 322 323 320 318 319 317 313 310 310 309 307 307 305 305 304 304 303 302 301 300 300 298 298 298 297 297 297 297 297 297 297 297 297 297 298 298 298 298 298 299 300 301 301 302 302 302 302 302 303 303 304 303 303 303 303 303 303 303 302 302 302
317 317 318 319 321 320 318 321 323 322 319 319 317 316 316 317 317 318 319 319 318 319 321 322 320 322 324 322 319 320 317 314 310 310 309 308 307 306 305 304 303 302 302 301 300 299 298 298 297 297 296 296 296 296 296 296 296 296 296 296 297 297 297 297 297 298 298 299 299 300 300 301 301 301 302 302 302 303 303 302 303 302 302 302 302 301
313 311 312 316 319 317 317 318 320 322 319 315 316 317 319 320 320 318 319 317 319 322 322 322 320 320 325 327 320 318 317 314 310 309 309 307 306 305 304 304 303 302 301 301 300 299 298 298 297 296 296 295 295 295 295 295 295 295 295 295 296 296 296 296 296 297 297 297 297 298 298 299 299 300 300 300 301 301 301 301 302 302 302 302 301 301
315 313 314 316 316 314 317 318 316 316 316 315 315 316 319 323 321 319 319 318 321 325 324 323 320 318 324 327 319 316 315 312 310 309 308 307 305 305 304 304 303 302 301 300 300 299 298 297 297 296 296 295 295 294 294 294 294 294 294 294 295 295 295 295 295 295 296 296 296 296 297 297 298 298 298 299 299 299 299 300 300 301 301 301 301 301
320 318 316 316 315 313 316 318 316 315 314 314 316 315 320 325 323 322 324 323 324 325 322 323 323 321 321 321 317 316 314 312 311 310 308 306 305 304 304 303 302 301 300 300 300 300 298 296 296 296 295 295 294 294 294 294 293 293 293 293 294 294 294 294 294 294 294 294 295 295 295 296 296 297 297 297 297 297 298 298 298 299 299 299 300 300
323 322 317 317 317 314 314 315 319 321 316 314 317 320 323 324 322 322 324 324 325 323 319 318 320 322 321 317 317 315 311 310 311 309 308 306 304 303 302 302 302 300 300 300 300 300 298 296 296 295 295 295 294 294 294 293 293 292 292 292 293 293 293 293 293 293 293 293 293 294 294 294 295 295 295 295 295 296 296 297 297 297 298 298 298 298
323 324 320 320 319 315 313 314 320 322 317 314 319 324 325 323 322 322 322 323 325 324 320 317 319 322 321 316 314 310 308 308 307 306 306 304 303 303 302 301 301 299 300 300 299 299 297 295 295 295 295 294 294 293 293 292 292 292 292 291 291 292 292 292 292 292 292 292 292 292 292 292 293 293 294 294 294 294 295 295 295 296 296 297 297 297
321 323 321 319 316 313 315 315 316 319 320 318 319 324 325 323 322 322 323 323 323 323 321 319 321 321 317 314 310 307 307 306 305 304 304 303 302 302 302 300 300 299 299 300 299 297 296 295 295 295 294 294 294 293 292 292 291 291 291 291 290 291 290 290 290 290 290 290 291 291 291 291 291 292 292 292 293 293 293 293 294 294 294 295 295 296
320 322 322 319 314 313 316 317 315 318 322 320 320 323 322 320 320 321 323 321 320 322 320 318 320 318 315 315 309 307 307 305 305 304 303 302 302 301 301 300 299 299 299 299 298 296 295 295 295 294 294 293 293 293 292 291 291 290 290 290 290 290 290 290 289 289 288 288 288 289 289 289 290 290 290 290 291 291 291 292 292 292 292 293 293 294
322 323 323 321 319 316 313 315 315 316 319 320 321 321 319 318 320 319 320 320 320 321 318 316 318 316 316 316 311 309 308 305 305 304 302 302 301 300 300 299 299 299 298 297 297 296 295 294 294 294 293 293 293 293 292 291 290 290 289 289 289 289 289 289 290 289 288 287 286 286 286 287 287 288 288 288 288 289 289 289 290 290 291 291 291 292
322 322 322 321 322 318 311 313 317 315 316 318 318 318 316 319 321 319 319 320 321 320 318 317 318 316 316 316 313 312 310 306 304 304 302 301 300 299 299 299 298 298 297 297 296 296 295 294 294 294 293 293 293 292 292 291 290 289 289 288 288 288 288 288 289 289 289 288 287 286 286 286 286 286 286 286 286 286 287 287 287 288 288 289 289 290
320 322 323 321 322 318 313 316 319 318 316 315 314 315 315 317 320 319 319 320 320 320 319 319 318 318 317 315 313 312 309 306 305 304 302 301 300 299 299 299 298 297 297 296 296 296 295 294 294 293 293 293 293 292 292 291 290 290 289 288 288 288 288 288 288 288 288 288 288 288 287 286 286 285 285 285 285 285 285 285 285 285 286 286 287 287
319 320 321 319 318 317 317 318 319 318 318 316 315 315 315 316 318 318 317 319 319 319 320 319 319 319 315 312 311 310 308 307 306 304 302 301 300 299 299 299 298 297 297 296 296 295 294 294 294 293 293 293 293 293 292 292 291 290 289 288 288 288 288 288 288 288 288 288 288 288 287 287 286 286 286 286 285 285 285 285 285 285 285 285 285 285
317 318 319 319 318 317 317 317 316 317 317 317 317 317 316 316 317 318 317 317 317 317 318 318 318 319 313 309 310 310 308 308 306 303 301 300 299 299 298 298 298 297 296 296 296 295 294 294 294 294 294 293 293 293 292 291 291 290 290 289 288 287 288 288 288 288 288 287 287 288 287 287 287 286 286 286 286 285 285 285 285 285 285 285 285 285
316 317 317 318 317 316 316 315 315 315 315 316 317 318 317 317 317 318 318 317 317 316 316 317 318 318 312 308 308 308 306 305 304 302 301 300 299 299 298 298 298 297 297 296 296 294 293 294 294 294 294 293 292 292 291 291 290 290 290 288 288 287 287 287 287 287 287 287 287 287 287 287 287 287 286 286 285 285 285 285 285 285 285 284 285 285
316 317 317 317 317 315 316 315 314 315 315 316 317 316 316 316 317 317 316 316 316 316 316 317 318 318 313 307 306 306 305 304 303 302 301 300 300 299 299 298 298 297 297 296 295 293 293 293 293 293 293 292 292 291 291 291 290 290 289 288 288 287 287 286 286 286 286 286 286 286 286 286 286 286 286 286 285 285 284 284 285 285 285 284 285 284
316 316 316 316 316 316 315 313 314 318 318 316 316 315 314 315 315 316 316 315 315 315 316 317 316 316 313 307 305 305 305 304 303 303 302 302 301 300 299 298 297 297 296 295 294 293 292 292 292 292 292 292 291 291 291 290 290 290 289 289 288 288 287 286 286 285 286 286 285 286 286 286 285 285 285 285 285 285 284 284 284 284 284 284 285 285
314 315 316 315 314 314 313 311 313 316 314 312 312 312 312 311 312 314 315 315 314 313 314 314 313 312 311 309 307 306 305 305 304 304 303 303 302 300 299 298 297 296 295 294 294 293 292 292 291 291 291 291 291 290 290 290 289 289 289 288 288 288 287 286 286 285 285 285 285 285 285 285 285 285 285 285 285 285 284 284 284 283 283 283 284 284
311 312 313 314 313 312 311 311 312 312 311 310 310 310 309 309 309 310 311 311 310 310 310 310 309 309 309 309 309 308 307 307 306 305 303 303 302 301 299 298 297 295 294 293 293 293 292 292 291 290 290 290 290 290 290 289 289 289 289 288 288 287 287 286 286 286 285 285 285 285 285 285 285 284 284 284 285 284 284 284 284 283 283 283 283 283
310 310 311 311 312 311 311 310 309 309 308 308 307 308 308 308 308 308 309 308 309 310 309 308 308 308 307 307 308 308 307 307 306 306 304 302 301 300 299 298 297 295 294 293 292 292 293 292 291 290 290 290 290 290 290 289 289 289 288 288 288 287 287 287 286 286 286 286 286 285 285 285 285 285 285 284 284 284 284 284 283 283 283 283 283 283
309 309 309 308 308 308 307 306 306 306 305 305 306 306 306 307 307 307 307 306 307 309 308 306 307 308 307 307 307 307 306 305 305 305 305 303 301 300 299 298 296 295 294 294 293 293 294 293 291 291 291 290 290 290 290 290 289 289 289 288 288 287 287 287 287 286 286 286 286 286 285 285 285 285 285 285 284 284 284 283 283 283 282 282 282 282
308 307 307 306 306 306 306 306 306 306 305 304 305 305 304 304 305 305 305 305 306 306 306 306 307 307 306 306 305 305 305 305 304 304 304 302 300 299 298 296 296 295 295 294 294 294 294 292 290 290 291 290 290 290 290 290 290 289 289 289 288 288 287 287 287 286 286 285 285 285 285 284 284 284 284 284 283 283 283 283 283 282 282 282 282 281
308 307 305 304 305 305 305 305 305 305 305 304 304 304 304 304 305 305 305 305 306 306 306 306 306 305 305 305 304 303 302 302 302 301 300 300 300 299 297 296 296 295 295 294 294 294 294 292 290 290 291 290 290 290 290 290 290 289 289 289 289 288 288 287 287 286 286 285 284 284 284 284 283 283 283 283 282 282 282 282 282 282 282 282 281 281
306 306 304 303 304 303 302 303 303 303 304 304 304 303 303 303 303 304 304 304 304 304 304 304 304 304 303 303 302 301 301 300 299 298 298 297 297 297 296 296 296 296 296 295 294 294 294 293 290 289 290 290 290 290 290 290 290 289 289 289 288 288 288 287 286 286 285 285 284 284 284 283 283 283 282 282 282 282 282 281 282 281 281 281 281 281
305 304 303 303 303 302 302 303 302 302 303 302 302 301 301 302 302 302 303 303 303 303 304 303 303 303 303 302 300 300 299 298 296 295 295 295 295 294 294 294 295 295 296 296 295 295 294 292 290 290 290 290 290 290 290 290 290 289 289 289 288 288 287 286 286 285 285 284 284 284 283 283 283 282 282 282 281 281 281 281 281 281 281 281 280 280
304 304 302 302 302 302 302 302 302 302 301 301 301 301 301 301 301 301 301 301 301 302 302 302 301 302 301 298 296 295 294 293 292 292 293 293 293 293 293 293 294 294 294 294 295 294 292 290 290 290 290 290 290 290 290 289 289 289 288 288 287 286 286 285 284 284 283 283 283 283 283 282 282 282 281 281 281 281 281 281 280 280 280 280 280 279
303 303 302 302 302 301 301 301 300 299 299 300 301 302 300 299 300 301 300 300 300 300 300 299 298 297 295 293 292 292 291 291 291 292 292 292 293 293 293 294 293 293 293 293 293 292 291 290 291 291 290 290 290 289 289 288 288 287 287 286 285 285 284 284 283 282 282 282 282 282 281 281 281 281 280 280 280 280 280 280 280 280 280 279 279 278
301 302 301 301 301 300 300 300 299 298 297 299 301 301 300 299 300 300 300 299 298 298 299 298 294 292 292 291 291 291 290 291 292 292 292 292 293 293 293 294 294 293 292 292 292 291 291 291 291 290 290 289 288 288 287 287 286 285 285 284 284 283 283 282 281 281 280 280 280 280 280 280 279 279 279 279 279 279 279 278 278 278 278 278 277 277
300 300 300 300 299 299 299 298 298 297 297 297 298 298 298 298 298 298 298 299 298 298 299 296 292 291 291 291 290 291 291 292 292 292 292 293 294 294 293 293 294 293 291 290 290 290 291 291 290 289 288 288 287 286 286 285 284 284 283 283 282 281 281 280 279 279 279 279 278 278 278 278 277 277 277 277 277 277 276 276 276 276 276 276 276 276
300 300 299 299 299 299 298 298 298 297 297 297 296 296 296 297 296 296 296 298 299 298 297 295 292 290 290 290 290 291 292 293 292 291 292 293 294 295 294 293 292 291 290 290 290 290 290 289 288 287 286 286 285 284 284 283 282 281 281 280 279 279 278 277 277 277 277 276 276 276 275 275 275 275 275 275 275 274 274 274 274 274 274 274 274 274
298 299 299 299 299 299 298 298 298 297 297 298 297 296 296 296 296 296 295 295 296 295 293 292 291 290 290 290 290 290 291 292 292 291 292 293 293 294 293 292 290 290 290 289 289 288 288 287 286 286 285 284 283 282 281 281 280 279 278 277 277 276 276 276 275 275 274 274 273 273 273 273 272 272 272 272 272 272 271 271 271 271 271 272 272 272
296 297 299 299 298 298 298 298 297 296 296 296 295 295 296 296 296 295 294 294 295 293 291 291 291 290 291 291 291 290 291 292 292 291 292 292 290 290 291 290 290 289 289 289 288 287 287 286 285 284 283 282 281 280 279 278 277 276 275 275 275 274 274 274 273 273 272 271 271 270 270 270 270 269 269 269 269 268 268 268 268 269 269 269 269 270
296 296 298 298 297 297 297 297 297 296 296 296 296 296 296 296 295 294 293 294 295 293 290 290 292 292 292 292 291 291 292 292 292 292 292 291 290 290 289 289 289 289 288 288 287 286 285 284 283 282 281 280 279 277 277 276 274 274 273 273 273 273 272 272 271 270 270 269 268 268 267 267 267 267 266 266 266 266 266 266 266 266 266 266 267 267
295 296 297 296 295 295 295 296 295 295 295 296 296 295 296 295 295 295 294 293 295 296 293 292 293 292 292 291 291 291 291 291 291 291 291 291 291 290 289 288 289 288 287 287 285 284 283 282 281 280 279 278 276 275 275 274 273 272 272 271 271 271 270 269 269 268 267 267 266 266 265 265 265 265 265 264 264 264 264 264 264 264 265 265 265 265
295 295 295 295 294 294 295 294 294 294 295 295 294 294 295 296 296 296 294 292 293 296 296 293 293 293 292 291 291 291 291 291 291 291 291 291 291 290 288 287 288 287 286 285 284 282 281 280 278 277 276 275 274 274 273 272 271 271 270 270 270 269 268 267 267 266 266 265 265 264 264 264 264 264 264 263 263 263 263 263 263 264 264 264 264 264
294 294 294 294 294 294 294 293 294 296 296 295 294 294 295 296 296 296 296 294 293 294 294 293 293 293 292 292 291 291 291 290 290 290 290 290 290 289 287 286 286 285 284 283 281 280 279 278 276 275 274 273 273 272 271 270 270 269 268 268 268 267 266 266 265 265 264 264 264 263 263 263 263 263 263 263 263 263 263 263 263 263 263 263 263 264
294 294 294 293 292 294 294 293 293 294 294 294 295 295 295 295 295 294 295 295 294 293 292 292 292 292 291 291 291 290 290 290 290 290 290 289 289 289 287 286 284 283 282 280 279 278 277 275 274 273 272 272 271 270 269 269 268 267 267 268 267 266 265 265 264 264 263 263 263 263 263 263 263 263 263 263 263 263 263 263 263 263 263 263 263 263
293 293 293 292 292 292 292 292 292 292 292 293 294 294 294 295 294 294 294 294 293 293 292 292 292 292 291 291 290 290 290 290 290 290 289 289 289 287 285 284 282 281 279 278 277 276 275 273 272 272 271 270 270 269 268 267 267 266 267 266 265 264 264 264 263 263 263 263 263 262 262 262 262 262 262 262 262 262 262 263 263 263 263 263 263 263
292 292 292 291 292 291 291 291 292 292 292 292 292 292 293 294 293 293 293 293 293 293 293 293 292 291 291 290 290 290 290 289 289 289 289 289 288 285 282 281 280 279 277 276 275 274 273 272 271 270 269 269 268 268 267 266 265 265 265 265 264 264 263 263 263 262 262 262 262 262 262 262 262 262 262 262 262 262 262 262 262 262 263 263 263 263
292 292 291 291 291 291 290 291 291 291 291 291 291 291 292 292 292 292 292 292 292 292 292 291 290 291 291 290 290 289 289 288 288 288 288 287 285 283 280 279 278 277 275 275 273 272 271 270 269 269 268 267 267 266 265 265 265 265 264 264 263 263 263 263 262 262 262 262 262 262 262 262 262 262 262 262 262 262 262 262 262 262 262 262 262 263
292 292 291 291 291 291 291 291 291 291 291 291 291 291 291 291 292 291 292 292 291 291 291 290 289 289 290 290 289 288 288 288 287 286 286 284 282 280 278 276 276 275 274 273 272 271 270 269 268 268 267 266 265 265 264 264 264 264 264 263 263 263 263 262 262 262 262 262 262 262 262 262 262 262 261 261 261 261 261 261 262 262 262 263 263 264
292 291 291 291 291 291 291 291 291 291 290 290 291 291 291 291 291 291 291 291 291 291 291 291 289 287 286 286 286 286 287 287 284 283 282 281 279 277 276 275 274 273 272 271 270 269 268 268 267 266 265 265 264 264 263 263 264 264 263 263 263 263 262 262 262 262 262 262 261 261 261 261 261 261 261 261 261 261 261 261 262 263 263 264 264 265
292 291 291 291 291 291 291 292 292 291 290 291 291 291 292 292 292 292 291 291 291 291 291 291 290 289 287 284 282 283 284 283 280 279 279 278 276 274 274 273 272 271 270 269 268 268 267 267 266 265 264 264 263 263 263 263 263 263 263 263 263 263 262 262 262 261 261 261 261 261 261 261 261 261 261 261 261 261 261 261 261 262 263 264 264 265
Wind_Speed
3 3 3 4 7 9 9 9 9 8 8 8 6 5 5 6 7 7 10 6 4 2 4 4 6 7 8 11 13 15 13 10 11 11 7 3 6 9 10 9 10 10 9 12 19 22 23 24 23 22 23 24 25 26 26 26 26 25 22 21 20 15 10 7 5 3 1 2 3 4 5 6 7 9 10 11 13 12 12 13 14 14 14 16 20 25
2 4 5 8 12 11 9 9 8 6 7 7 4 5 5 5 7 8 9 6 3 1 4 4 6 8 9 13 15 13 9 9 8 4 5 10 11 8 9 10 9 8 8 12 16 19 22 23 22 22 23 25 25 26 27 26 26 26 25 24 23 19 16 13 10 9 6 3 1 1 1 2 3 3 5 7 10 12 11 10 12 13 14 15 18 22
2 5 9 12 12 10 9 10 7 6 6 6 4 4 4 6 6 7 6 2 3 1 3 5 7 7 10 15 16 12 9 6 3 9 11 11 10 9 10 9 9 9 9 10 11 15 20 21 21 22 23 24 24 25 27 27 27 28 27 25 23 21 21 17 13 13 13 8 5 5 5 4 3 3 4 4 5 9 11 10 10 11 12 13 16 19
4 5 11 13 11 9 9 8 6 5 4 4 4 3 5 5 4 4 2 2 3 2 5 7 6 5 9 14 14 13 9 1 11 15 13 10 11 11 10 9 9 9 9 9 9 11 16 19 21 22 22 23 24 26 28 28 27 28 27 26 23 21 22 20 14 14 14 10 8 7 6 5 3 2 1 2 2 5 8 10 11 12 12 13 15 17
7 6 5 5 5 6 6 6 5 4 4 5 6 6 6 6 6 4 2 5 5 5 4 4 5 4 7 9 7 8 4 7 11 12 12 10 10 10 10 10 9 8 8 8 9 9 12 17 20 21 22 23 25 27 28 28 27 27 26 25 24 23 22 21 17 15 14 11 10 10 9 8 6 4 3 3 3 3 4 7 9 11 12 13 14 16
8 5 0 3 3 3 3 4 5 4 3 5 5 5 6 5 4 3 4 5 4 4 2 1 3 3 5 6 6 7 4 6 8 10 11 8 8 9 9 9 7 7 7 7 8 9 11 16 19 21 22 24 26 27 27 28 28 27 25 24 24 24 23 22 18 16 15 13 12 13 12 11 10 8 8 7 5 3 3 3 5 7 9 10 12 14
3 1 3 2 3 3 3 5 6 5 3 4 3 2 2 1 2 1 2 1 1 4 3 2 3 4 4 6 7 10 6 6 8 9 9 7 8 8 8 7 5 6 6 6 8 9 12 16 17 19 21 23 25 26 27 28 29 29 27 25 24 24 24 23 20 17 17 16 15 14 12 12 12 12 12 11 9 6 5 5 5 7 9 9 9 11
3 3 3 2 2 3 4 5 5 6 4 3 2 3 3 2 1 1 2 3 3 4 5 5 5 5 5 6 10 13 7 8 9 8 8 7 8 8 8 7 5 6 5 5 7 8 11 14 16 17 20 22 24 27 29 30 30 29 28 26 26 26 25 23 21 19 18 17 16 14 13 13 12 11 10 9 9 7 6 6 7 7 9 10 10 10
1 4 3 4 4 4 4 2 2 5 4 2 1 1 2 1 1 2 3 5 4 3 5 5 6 3 5 5 8 10 6 8 8 7 8 8 8 8 8 7 5 5 5 5 7 8 10 15 18 18 18 21 24 27 29 29 29 28 28 28 28 29 28 25 22 20 19 17 16 15 15 14 13 11 10 8 8 9 8 8 7 8 9 10 10 10
0 2 3 4 5 4 3 1 3 1 3 2 1 0 0 2 3 4 4 3 2 3 5 6 7 3 5 6 5 4 4 5 6 6 7 8 8 8 7 6 5 4 4 5 7 10 13 16 17 17 17 21 24 26 27 28 28 28 28 29 30 30 29 27 25 23 21 19 18 16 16 15 14 13 12 10 10 10 9 9 9 9 9 10 10 11
1 2 1 2 4 3 4 3 2 2 3 2 1 1 3 4 4 3 3 2 1 4 7 8 10 8 3 6 3 2 3 7 8 6 7 8 8 8 7 5 5 4 4 5 7 10 13 15 15 17 19 22 24 25 27 27 26 26 26 28 30 29 28 28 27 26 25 23 21 19 17 16 15 14 13 13 14 13 12 11 11 10 10 10 10 11
2 1 1 2 3 2 5 2 2 2 3 2 0 1 3 3 2 2 1 2 1 4 6 6 8 11 5 4 3 1 4 10 10 9 10 10 8 8 7 5 5 5 4 5 6 7 9 11 14 17 19 21 23 24 25 25 24 24 25 27 29 29 28 27 27 27 27 26 24 21 19 17 15 14 14 15 15 14 13 13 12 11 10 11 11 11
3 5 5 2 2 2 4 2 1 2 2 3 2 2 1 2 0 1 1 1 3 5 4 5 2 5 5 5 6 4 4 5 6 9 11 10 9 8 7 6 5 4 4 5 6 6 6 7 11 13 15 17 19 20 21 22 23 24 26 27 28 28 26 26 26 26 27 27 26 24 22 21 18 17 16 15 15 14 14 13 13 12 12 12 12 12
2 2 4 3 2 2 6 4 2 1 2 5 4 4 3 1 1 3 3 2 3 4 2 4 5 1 3 4 5 1 7 7 8 10 9 9 10 8 7 6 5 4 4 5 6 5 5 7 9 10 11 13 14 15 18 21 23 25 27 27 27 26 25 25 24 24 25 25 25 24 24 23 22 21 20 19 17 16 15 14 13 13 13 13 13 13
3 4 3 5 1 5 8 6 3 3 5 7 5 4 4 3 3 4 4 3 3 3 3 1 1 1 2 1 2 6 9 8 9 10 9 9 8 7 7 6 4 4 4 6 6 5 6 7 8 7 8 9 11 14 18 21 23 24 25 25 24 24 23 23 23 23 23 23 23 24 24 24 24 23 22 22 21 19 18 16 15 14 13 13 13 13
4 4 2 2 1 6 7 5 2 3 3 3 1 3 2 3 3 3 4 4 4 5 4 3 3 4 3 3 6 7 8 9 9 9 9 8 7 7 6 5 4 4 5 6 6 5 5 6 6 6 8 9 13 17 20 21 21 22 22 22 22 21 21 21 22 22 21 21 22 23 23 23 23 23 24 23 22 21 20 19 18 17 15 14 14 14
2 3 1 1 2 4 3 3 2 1 1 1 2 1 3 2 2 2 5 4 4 5 5 5 5 5 4 2 6 7 8 8 7 7 8 7 7 6 5 4 4 4 5 5 5 4 4 5 6 7 10 12 15 17 18 19 20 20 19 19 18 18 18 19 20 21 22 22 22 23 23 23 23 23 23 23 22 22 21 21 21 20 18 17 16 15
1 2 3 3 2 2 2 4 4 2 2 3 1 3 1 2 1 1 3 3 4 6 5 6 7 5 4 3 3 6 7 7 6 7 7 6 7 6 5 5 4 5 5 4 4 4 4 4 5 8 10 12 13 15 16 17 17 17 17 17 17 17 17 16 16 17 19 21 23 24 24 24 23 23 22 22 22 22 22 23 23 22 22 20 19 19
2 1 4 2 1 1 1 3 3 3 2 4 2 1 1 1 1 2 2 2 5 7 4 6 8 6 5 3 1 4 7 8 6 6 6 6 6 5 5 5 5 5 4 3 3 1 2 3 5 7 9 10 11 12 13 13 14 15 15 15 16 17 17 16 16 16 16 18 20 22 23 23 23 23 23 23 23 23 24 24 24 24 23 22 22 21
2 1 2 2 2 0 2 2 1 2 2 3 2 2 1 2 3 3 2 2 5 7 5 5 6 5 4 2 2 2 7 9 7 6 6 6 6 5 5 5 4 4 4 3 3 3 3 3 4 5 6 6 7 8 9 10 11 12 13 14 15 15 16 16 16 16 16 16 17 18 20 20 21 21 21 21 22 22 23 23 23 24 24 23 23 23
1 2 3 1 0 1 0 3 5 4 3 1 1 2 2 2 2 2 2 3 4 5 4 5 6 4 2 3 3 5 7 8 8 7 6 5 6 5 5 5 5 5 5 4 5 4 4 4 4 3 2 3 5 6 6 7 7 8 10 12 12 13 13 14 14 14 14 14 14 14 16 17 18 19 18 18 19 20 21 21 21 22 22 22 23 23
0 2 2 2 3 2 4 4 2 2 2 1 2 4 4 3 2 3 5 5 4 4 4 5 7 4 1 2 3 5 5 5 7 8 6 5 5 5 5 5 5 5 5 5 5 4 4 5 4 4 3 4 4 4 4 4 5 5 6 9 10 11 12 12 12 12 12 13 12 12 13 14 14 15 16 16 18 19 19 20 20 20 21 22 22 22
2 1 1 4 5 6 8 7 6 6 4 3 2 3 3 3 2 4 6 4 2 4 5 6 7 3 2 2 2 4 4 6 7 7 6 5 5 6 6 6 6 5 5 5 5 4 4 4 4 4 4 5 5 5 5 4 4 4 5 7 9 11 12 12 13 13 12 12 13 11 11 12 12 14 15 15 16 17 18 19 19 20 21 21 22 22
3 2 1 4 4 6 9 9 9 8 5 5 3 1 0 2 2 3 3 1 1 4 6 6 6 2 1 3 2 5 5 6 6 6 6 5 5 6 6 6 6 6 6 5 4 4 5 5 4 5 5 4 4 4 4 4 4 5 6 7 8 10 12 13 14 15 14 14 15 13 13 14 14 15 16 16 16 17 18 18 18 18 20 20 20 21
1 1 1 1 3 4 5 6 5 3 3 1 2 3 3 3 5 4 3 2 2 5 7 6 4 2 1 1 2 4 5 4 5 6 7 7 6 6 6 6 5 4 4 5 4 4 4 5 5 5 5 4 4 4 4 4 5 5 6 7 7 8 10 12 13 15 16 15 16 17 16 17 18 19 19 19 19 20 21 21 20 19 21 20 20 20
1 1 2 2 4 5 5 4 2 1 2 2 3 5 6 7 8 5 3 3 4 5 5 5 6 5 2 2 1 3 4 5 5 6 6 6 6 6 5 5 5 4 4 4 5 4 3 3 4 4 4 4 4 4 5 5 6 6 6 7 7 8 9 10 12 14 15 15 17 18 18 19 21 22 22 22 23 24 26 26 26 26 26 25 24 25
1 1 2 5 6 6 7 7 4 3 3 4 6 7 8 9 9 6 4 6 6 5 5 8 10 9 7 7 6 3 4 5 6 7 7 5 5 6 6 5 5 4 4 4 4 3 2 1 1 2 2 3 3 4 4 5 5 6 6 8 9 10 11 12 14 17 18 18 19 20 21 22 24 25 25 24 24 25 27 28 29 30 31 30 29 29
2 2 5 6 7 7 8 9 9 8 7 7 8 10 11 10 9 8 8 7 5 5 8 10 10 11 10 10 9 7 6 6 5 6 7 7 7 6 5 5 5 4 4 3 2 2 2 2 1 1 2 3 4 5 6 6 7 8 8 10 12 13 14 15 17 19 20 21 22 23 24 26 28 29 30 30 29 29 30 30 30 31 32 32 31 31
3 3 5 5 6 8 9 10 9 8 8 7 9 11 12 13 13 12 11 10 7 8 10 11 13 14 12 10 10 9 8 7 6 5 3 4 5 5 5 5 5 5 5 5 4 5 5 4 4 5 6 6 6 7 7 8 9 10 10 12 13 14 14 16 17 18 20 22 23 24 25 26 28 30 32 33 33 34 34 34 34 34 33 33 32 31
2 3 4 4 5 8 9 9 8 6 7 9 11 12 14 16 16 14 12 13 12 13 14 14 15 15 11 8 6 4 4 4 4 5 4 4 5 5 5 5 5 6 6 6 6 6 6 6 8 9 9 8 9 9 9 10 10 11 12 13 14 15 15 15 17 18 20 22 23 24 25 26 28 29 31 32 32 34 35 36 37 37 37 36 34 32
0 2 2 1 2 6 8 8 6 5 7 9 11 14 16 16 15 13 13 13 12 13 14 14 14 12 6 1 2 3 4 5 5 5 5 5 5 5 4 4 5 5 6 6 6 6 7 7 8 9 10 10 11 11 11 12 12 13 14 15 16 16 15 15 16 18 21 22 23 24 24 26 27 29 30 31 31 32 34 35 37 38 39 39 38 36
1 2 2 1 2 7 8 7 6 5 5 8 13 17 18 15 13 12 11 10 11 13 14 13 11 9 2 3 3 1 3 6 5 5 5 4 4 5 3 3 4 5 6 6 6 7 7 6 7 9 11 11 11 11 11 12 13 13 14 14 15 15 14 14 16 18 21 23 24 25 25 26 28 29 30 31 31 32 34 34 35 37 39 39 39 39
2 2 1 2 3 6 7 6 3 1 3 8 12 13 14 14 13 12 11 11 13 12 10 9 7 5 2 2 2 2 4 5 4 4 4 3 3 2 1 3 4 5 6 6 6 6 7 8 9 11 12 11 11 11 10 10 10 11 12 12 13 12 12 13 16 19 22 24 25 26 27 27 28 29 30 31 32 32 33 33 34 36 37 38 38 39
4 3 3 3 3 5 7 5 2 2 7 9 4 4 8 10 10 10 10 10 11 8 6 7 6 2 3 3 3 3 4 3 3 3 3 2 2 3 4 5 5 6 5 5 5 5 6 8 11 12 12 12 11 9 7 6 7 9 10 10 10 11 12 15 19 22 25 26 27 27 28 28 28 29 30 31 31 32 33 33 34 35 35 35 35 37
5 4 4 4 3 4 4 3 3 8 9 4 1 4 6 5 5 8 10 10 10 9 9 9 5 2 5 5 5 4 3 3 3 4 5 4 4 5 5 6 6 5 5 5 5 5 7 9 10 11 11 8 5 4 5 7 8 8 8 9 11 14 16 18 21 23 25 26 27 27 27 27 27 29 30 32 32 32 32 32 33 34 35 34 34 36
5 5 4 3 4 3 3 4 7 7 4 3 3 3 1 2 5 7 8 8 9 7 5 1 4 7 6 5 4 3 2 3 4 5 6 6 7 6 6 6 5 4 4 5 6 7 11 12 11 8 4 1 4 6 8 8 8 8 10 12 14 16 17 18 21 23 24 24 25 26 26 26 28 30 32 32 31 31 31 31 33 34 35 35 36 38
7 5 3 3 4 4 4 7 7 7 8 8 7 3 0 2 3 3 3 4 4 2 2 6 8 6 5 4 2 2 2 2 4 5 6 7 7 7 5 6 5 5 6 7 9 10 9 8 6 5 5 6 8 8 8 8 9 11 13 14 15 16 17 19 21 22 22 23 24 25 26 27 28 30 31 31 31 32 32 33 35 35 35 35 37 38
6 6 5 4 5 4 4 6 6 7 8 5 3 1 1 2 2 1 0 2 3 2 3 9 8 5 4 2 2 2 1 2 3 5 5 3 4 4 4 5 6 5 6 8 9 7 6 6 7 8 8 9 9 8 8 9 11 13 14 15 15 17 19 20 20 21 22 23 25 26 27 27 28 29 30 31 32 33 34 35 36 36 35 35 36 38
2 4 5 4 5 5 5 6 7 7 5 3 5 4 3 3 3 5 4 3 2 0 4 8 7 5 4 1 3 1 1 1 4 5 4 2 3 4 5 6 6 5 4 4 3 4 5 7 8 9 9 10 9 8 9 11 14 15 16 16 17 18 19 20 21 23 24 26 27 28 28 27 28 29 30 31 33 33 35 36 36 36 35 35 36 38
1 2 3 5 6 8 8 7 6 5 4 3 6 5 4 3 5 5 6 5 4 4 4 6 5 4 5 4 4 3 4 4 5 6 5 4 4 6 6 7 5 3 0 2 2 3 6 7 8 8 9 8 8 9 13 15 17 16 17 17 18 19 21 23 25 27 28 29 29 29 29 29 29 30 31 32 34 35 35 34 34 34 35 35 36 37
2 1 3 6 8 9 9 7 5 5 5 6 6 5 3 4 4 3 8 5 4 6 4 5 5 6 6 5 5 4 5 6 6 6 6 5 6 8 10 9 4 3 4 4 2 4 5 5 6 7 6 6 9 13 16 16 18 18 19 20 20 21 24 26 28 30 30 31 31 31 31 30 29 30 31 31 32 33 34 32 32 34 35 35 35 36
3 1 2 5 6 6 7 6 6 6 3 4 3 3 2 4 1 5 6 3 6 8 6 5 6 6 6 6 6 6 6 7 6 6 7 6 6 7 10 6 3 7 5 2 3 4 4 5 6 6 6 9 12 14 15 17 20 20 21 22 23 25 27 28 29 30 31 32 33 32 32 31 30 30 31 31 31 32 34 34 33 33 34 33 34 35
4 3 3 4 5 4 5 6 6 6 2 5 4 1 1 4 4 4 2 3 7 7 6 6 6 6 6 7 7 7 7 7 6 6 6 6 6 7 5 2 6 6 3 3 3 3 5 7 7 8 10 12 13 13 16 19 21 22 22 24 25 26 27 28 29 31 32 33 33 33 33 33 32 31 31 31 31 32 34 35 33 33 32 31 32 33
2 4 3 4 4 4 4 5 5 3 3 5 6 3 4 5 4 5 5 4 6 6 5 5 6 6 7 6 7 8 7 6 6 6 6 6 7 4 3 6 5 4 3 3 2 3 6 8 9 11 13 13 12 14 17 19 22 23 23 25 26 27 28 29 30 31 32 33 34 34 35 34 33 32 32 32 32 32 33 33 32 31 30 29 29 30
5 6 6 6 5 5 5 5 3 1 2 4 6 6 6 7 6 5 6 5 5 5 5 5 6 6 6 6 7 7 6 6 6 6 6 6 5 3 5 4 3 4 4 3 2 4 7 10 11 13 14 13 14 16 18 19 20 23 25 26 27 28 29 31 31 32 33 34 34 35 35 36 35 34 33 33 32 31 32 31 30 30 29 28 28 28
7 6 5 5 6 5 5 6 5 5 7 6 6 6 7 7 7 7 6 6 7 6 6 6 6 6 6 7 6 5 5 6 6 6 6 5 3 4 4 4 4 4 3 2 4 7 10 12 13 13 15 16 17 18 19 19 19 21 25 27 28 28 29 30 32 32 33 33 34 34 35 36 36 34 33 32 30 30 30 30 30 30 29 29 29 28
5 7 6 5 6 6 5 5 6 7 9 9 7 6 7 8 8 7 7 7 7 7 7 7 7 7 6 6 6 6 7 7 6 7 7 4 3 4 4 5 5 3 2 3 5 9 12 13 14 15 17 18 19 20 21 20 19 21 24 26 27 29 29 30 30 32 32 33 34 35 34 34 34 34 32 32 31 31 31 30 30 30 29 29 30 29
4 6 7 7 8 8 7 7 8 9 10 9 8 6 6 7 8 8 7 7 7 7 7 7 7 6 5 5 6 7 7 7 7 7 5 2 3 4 5 4 3 1 2 5 7 9 11 13 15 16 17 19 21 22 22 21 21 23 24 26 28 29 30 30 30 31 32 33 34 33 32 32 32 33 33 33 32 31 31 30 30 31 31 31 32 32
4 6 6 5 6 7 6 7 8 9 9 10 10 8 8 9 9 9 8 7 6 7 6 5 6 6 6 6 6 6 7 7 5 4 3 2 2 3 3 2 1 3 5 6 8 10 12 14 15 16 18 20 22 22 22 22 23 25 25 26 28 28 29 31 31 30 32 32 32 32 31 31 32 33 33 34 33 32 31 31 31 32 33 33 33 33
6 8 8 5 5 6 6 7 7 6 7 9 10 10 10 10 9 9 8 6 6 7 6 6 5 5 6 6 6 6 6 6 4 4 4 3 3 2 1 1 3 5 6 8 10 12 13 13 14 16 19 21 21 21 21 23 25 26 26 27 28 28 29 31 31 31 31 30 30 31 32 32 33 33 33 33 32 32 32 32 31 31 33 34 34 34
8 10 9 7 7 8 7 7 7 6 7 8 8 9 8 7 7 8 7 7 7 7 7 7 6 6 5 6 6 7 7 5 5 5 4 3 2 1 1 3 4 6 8 10 12 13 13 14 16 18 19 20 21 21 22 25 26 27 27 27 27 27 28 30 30 30 30 30 30 32 33 33 33 32 31 31 31 31 32 32 31 31 32 34 35 36
Wind_Direction
152 164 182 209 229 235 232 231 235 237 253 271 274 275 279 283 277 271 279 289 76 95 269 282 291 291 289 281 273 271 277 278 273 277 288 350 45 59 64 62 60 60 51 39 39 37 31 30 32 34 36 38 38 37 37 37 37 38 41 44 44 44 46 45 49 62 122 185 222 233 237 238 234 235 231 227 226 226 233 234 232 236 234 227 224 223
138 199 211 220 234 243 250 263 274 280 288 290 285 284 285 277 272 273 280 288 81 105 279 302 295 289 292 283 274 274 280 270 269 306 29 60 64 59 60 57 55 57 46 38 36 33 31 30 32 36 38 39 39 37 37 38 37 39 42 41 41 47 48 44 45 50 51 53 38 353 249 222 229 229 222 228 230 229 237 240 233 235 236 233 231 227
195 226 229 230 240 251 261 270 276 280 290 296 291 290 279 263 273 284 276 261 98 115 286 300 292 289 287 280 279 281 272 269 20 62 65 68 67 54 52 49 43 43 41 37 32 30 31 30 32 37 40 40 40 39 39 40 39 39 40 40 43 48 48 45 46 45 41 41 44 41 51 85 120 119 154 184 208 221 232 242 243 240 239 239 238 235
193 224 229 231 241 250 256 263 271 274 267 261 254 251 261 258 268 273 257 63 34 300 277 286 288 282 275 272 274 273 258 90 71 75 74 70 73 67 59 51 42 39 36 36 33 28 29 30 31 36 40 41 41 40 39 40 41 40 39 41 43 49 49 47 50 49 41 35 33 25 22 33 52 71 150 220 234 236 235 241 248 249 248 250 249 245
234 248 235 218 230 245 261 274 273 272 267 250 230 225 244 249 252 260 331 5 340 300 278 294 297 261 257 274 288 278 257 92 83 84 79 72 76 75 68 59 47 39 35 37 36 28 29 29 28 33 40 43 43 41 40 39 41 42 42 42 44 49 51 48 53 57 51 42 36 30 24 23 18 7 340 320 309 285 262 252 258 261 258 257 256 253
249 267 243 167 197 214 242 263 253 236 263 265 238 232 243 248 265 309 353 356 337 303 266 53 314 247 240 280 294 276 249 99 87 87 86 79 72 69 65 58 48 41 35 35 39 35 35 32 27 28 35 42 44 42 41 42 43 45 45 45 45 48 50 50 55 59 58 55 48 40 34 28 21 18 21 28 29 9 341 306 280 273 271 268 261 257
235 171 80 137 196 192 212 253 252 221 237 258 251 313 322 59 52 355 324 319 243 270 237 182 274 257 248 262 260 257 234 119 92 89 91 85 78 74 70 63 52 48 36 30 38 35 35 36 30 25 28 38 45 45 45 45 44 45 46 46 45 46 48 51 54 59 60 58 54 50 46 40 32 26 26 29 28 18 3 347 318 296 290 286 276 265
198 146 74 99 180 195 214 248 236 192 196 237 238 357 14 60 54 276 242 224 233 274 265 229 232 263 267 241 244 250 220 120 102 101 98 92 88 86 82 75 62 60 55 41 42 35 31 35 34 27 25 35 45 48 48 47 44 44 45 45 46 46 47 49 52 56 58 56 52 51 52 48 40 31 27 27 26 21 3 341 325 312 303 298 295 284
166 157 172 170 173 206 206 240 243 178 183 216 189 30 32 76 256 238 215 236 261 299 278 221 190 244 274 248 244 239 186 122 123 130 119 112 105 98 96 91 77 67 66 61 58 48 32 30 33 31 27 34 43 49 50 49 47 46 46 47 46 46 46 47 50 53 54 55 53 51 48 42 35 28 26 28 30 25 12 355 337 323 311 302 299 297
127 160 202 174 174 207 180 68 359 140 168 188 193 233 236 210 229 226 217 238 282 276 258 219 179 198 279 267 244 216 171 141 144 140 122 115 110 103 98 96 89 72 58 60 60 52 39 31 32 33 33 37 42 48 52 52 49 48 48 49 48 46 45 45 46 49 50 50 50 49 46 41 34 26 22 23 26 22 13 4 352 338 324 310 300 298
184 76 333 210 201 193 125 93 22 80 133 157 164 305 283 249 219 209 203 178 309 264 257 234 195 185 277 281 235 169 161 154 148 148 134 121 114 107 98 92 87 71 52 54 55 49 41 34 32 34 35 37 40 45 50 51 49 48 48 50 50 48 46 45 45 46 47 46 46 45 43 40 34 28 23 21 21 19 14 8 1 350 338 327 313 300
201 145 247 232 230 152 115 102 20 58 94 105 107 304 306 286 190 145 99 106 186 253 276 273 195 184 219 277 276 23 127 151 157 158 147 134 123 110 101 94 82 72 64 62 61 52 39 31 29 30 33 35 37 41 45 47 47 47 47 49 50 47 45 46 45 45 45 44 44 43 42 40 35 32 29 23 19 16 13 8 1 356 348 341 334 320
215 209 198 197 285 175 140 115 20 11 76 117 177 199 280 320 338 191 210 162 217 237 277 344 66 184 223 264 279 315 66 113 132 135 136 131 123 112 103 96 85 81 80 74 70 57 43 34 30 31 33 34 35 38 42 45 46 45 45 47 47 44 42 44 45 45 45 44 43 42 41 40 39 38 34 26 20 16 12 6 360 357 350 343 340 334
286 256 175 157 316 197 170 161 172 258 170 167 185 169 165 235 273 252 250 238 246 250 282 8 30 327 259 276 278 30 71 62 77 100 111 116 115 111 108 106 103 104 89 75 73 63 51 43 39 40 41 40 41 42 46 48 47 46 45 45 45 42 40 41 42 43 43 42 42 42 42 41 40 40 37 32 28 21 15 9 2 358 351 343 337 332
246 299 186 171 214 176 184 203 195 138 159 192 199 155 160 189 209 240 258 253 257 278 296 334 39 254 230 228 88 101 96 79 77 89 95 99 106 107 107 110 112 105 80 72 73 67 61 55 50 49 51 52 51 49 50 50 49 48 46 45 44 41 40 40 39 40 40 40 40 42 42 41 40 38 36 35 33 29 24 18 10 3 355 346 338 331
221 256 184 150 228 172 187 236 226 117 156 216 155 100 165 198 192 241 264 254 268 289 283 243 228 252 243 157 112 101 96 93 94 99 102 104 106 104 100 103 104 86 73 72 73 72 70 67 65 60 54 53 50 48 49 48 48 48 46 45 44 42 42 41 40 40 40 40 41 42 42 41 40 38 35 33 32 30 29 26 21 13 6 356 344 336
226 245 136 71 265 191 201 283 259 180 170 77 68 153 218 196 153 253 271 266 271 270 257 239 244 271 278 199 118 102 96 101 108 108 111 114 107 100 99 101 94 80 77 78 83 87 79 68 65 61 54 52 51 50 49 49 48 49 47 45 43 41 42 41 40 40 42 44 45 44 43 42 41 40 37 33 31 30 30 29 26 21 17 12 2 352
173 264 225 189 214 251 309 344 327 304 101 104 170 219 256 14 45 241 256 260 255 253 241 239 255 273 279 258 132 125 122 118 119 114 113 115 109 106 111 106 92 88 91 92 91 86 79 66 55 54 52 49 50 51 52 52 52 52 50 47 44 40 39 37 35 35 36 41 44 44 45 43 42 41 38 35 32 30 29 28 26 22 20 18 13 7
54 290 251 199 152 270 349 16 330 313 63 118 180 264 56 355 299 242 232 222 238 254 248 235 252 262 252 247 177 168 152 130 128 128 123 121 118 119 118 111 104 105 105 104 108 124 116 84 53 46 44 41 45 47 50 51 50 51 49 47 45 42 39 37 35 31 27 29 32 36 39 40 41 41 38 36 33 31 30 27 24 21 18 17 14 11
43 187 261 21 58 107 36 51 189 288 352 71 51 339 283 201 211 216 236 239 238 257 262 242 247 252 250 289 18 112 137 139 147 145 132 124 124 129 129 127 128 128 137 156 172 194 175 120 81 57 41 37 40 39 40 40 40 43 41 41 40 37 36 35 33 31 26 21 19 21 26 29 32 34 34 34 32 31 30 27 24 21 18 16 14 10
58 213 239 294 268 115 103 192 190 222 255 197 115 265 240 216 221 242 261 242 230 252 265 260 254 245 268 348 46 96 125 147 152 140 131 130 130 134 139 145 154 156 169 187 191 192 174 143 129 113 79 60 50 40 38 33 31 35 33 33 34 31 30 29 27 27 24 20 15 13 15 16 19 20 21 23 24 24 24 23 21 19 16 15 13 11
267 238 248 262 257 250 240 225 212 229 220 153 174 203 213 221 230 259 255 233 217 238 243 253 260 242 229 333 57 97 111 124 127 125 130 144 146 148 160 166 169 177 187 189 185 186 168 142 135 127 108 86 69 56 51 43 36 33 29 27 27 26 25 23 20 19 17 16 13 9 7 6 6 7 7 9 10 11 12 10 10 10 8 7 7 7
81 96 250 265 256 263 277 290 304 299 292 285 245 194 202 231 227 240 254 258 263 264 255 251 255 236 207 294 51 92 99 100 111 123 131 151 166 168 181 184 178 185 194 188 178 170 146 124 115 106 89 72 63 52 42 40 35 32 29 23 20 20 19 17 17 15 13 10 7 4 1 357 355 353 355 357 358 360 360 357 357 357 356 356 357 357
57 85 215 265 271 279 288 289 287 288 283 269 259 217 173 265 274 249 236 231 247 266 269 261 257 257 286 310 36 78 87 94 111 132 141 165 188 184 185 185 182 186 185 172 157 140 126 114 100 91 82 67 57 43 28 29 27 24 22 12 7 9 9 9 10 10 10 5 2 0 355 353 351 347 345 346 345 347 349 348 346 345 344 344 344 345
353 188 169 270 288 293 296 288 290 331 20 14 309 325 334 324 315 291 231 198 197 223 235 250 265 259 251 342 43 84 99 121 149 161 166 178 189 189 184 177 174 170 152 131 105 81 80 86 83 80 78 72 60 41 24 21 18 18 16 6 360 357 359 3 4 4 4 358 355 353 349 347 347 345 343 339 336 337 339 340 339 337 337 336 333 331
181 211 131 175 244 259 265 267 268 37 30 350 299 304 312 303 295 293 278 263 259 243 236 254 271 271 301 331 262 166 161 185 192 193 197 192 184 182 177 167 161 150 132 116 101 87 70 66 77 78 71 65 54 35 21 17 15 12 7 3 0 353 352 356 355 357 358 353 349 347 344 342 341 341 340 335 332 331 331 333 334 333 334 335 331 328
90 270 216 208 230 244 252 265 285 302 295 286 288 288 284 279 276 275 264 258 272 293 279 261 265 277 291 289 277 243 208 213 205 204 213 210 193 183 172 165 163 154 140 126 119 122 125 136 112 85 49 30 23 9 3 3 1 359 351 348 350 348 346 345 345 347 349 347 344 342 340 338 336 335 335 332 327 324 324 326 328 328 329 331 330 328
118 242 235 223 235 244 254 271 287 292 283 275 280 279 274 275 273 261 255 261 286 298 273 265 275 282 279 280 290 302 293 277 259 234 222 212 204 189 166 159 158 158 154 143 149 201 212 230 253 286 304 313 317 318 321 323 326 329 328 330 335 335 334 334 334 338 339 337 335 334 332 331 330 329 329 327 323 320 319 320 321 322 323 324 325 325
125 243 250 244 257 261 265 272 277 281 285 281 277 276 277 276 269 261 263 268 269 264 264 273 277 273 273 279 285 295 302 303 308 301 253 192 177 157 145 152 161 173 183 182 196 216 220 224 231 235 250 264 274 284 292 295 299 302 303 308 317 322 322 321 322 326 330 328 326 325 324 322 321 322 322 322 320 319 318 317 317 318 318 319 320 320
120 237 248 245 263 269 268 271 278 286 289 284 276 273 271 269 267 268 270 269 264 262 267 273 272 271 277 286 290 320 349 349 360 10 33 77 104 118 132 155 175 190 199 199 207 215 210 210 215 220 231 240 246 256 264 269 274 278 279 284 294 301 305 306 308 311 315 316 316 315 315 315 314 314 314 314 314 314 314 314 314 314 314 315 316 315
294 241 259 298 292 277 267 269 279 279 277 279 276 270 266 266 271 271 269 271 273 271 269 271 273 277 283 325 36 45 42 36 39 39 43 70 105 123 137 172 194 207 210 207 211 214 211 210 213 218 227 234 240 247 252 257 261 264 265 271 280 287 292 293 294 297 300 302 304 305 306 307 308 308 307 307 307 307 308 309 309 309 309 311 312 312
263 264 310 357 273 267 268 275 276 271 276 273 266 263 261 263 267 264 262 267 269 271 275 277 276 277 285 80 70 45 55 51 41 33 31 40 92 118 144 213 230 232 229 224 223 220 214 211 212 220 229 234 239 245 251 257 261 261 264 271 279 284 287 287 289 291 292 294 296 298 299 301 303 303 301 301 301 301 302 303 303 303 304 305 307 309
193 185 256 244 248 262 269 275 279 281 279 265 257 254 253 254 257 258 260 261 259 263 271 270 264 252 185 95 32 7 53 56 33 24 28 13 22 54 257 253 251 249 246 244 241 229 216 214 221 228 233 238 243 246 249 255 262 268 275 281 285 286 288 291 295 297 296 295 295 296 297 299 300 299 298 297 297 297 298 297 296 297 298 299 301 304
195 183 207 234 246 261 268 289 353 225 251 259 246 217 234 245 255 261 261 258 258 260 257 263 268 225 127 99 72 58 53 46 20 3 355 334 310 290 281 271 263 265 272 275 273 265 249 233 228 232 239 247 251 251 255 271 281 285 287 287 289 291 295 299 301 301 300 299 297 298 298 297 296 296 295 296 296 296 295 294 294 294 294 294 296 299
200 196 208 226 236 253 270 299 272 240 244 256 181 201 232 245 247 255 262 262 263 268 273 280 290 85 91 79 75 64 22 349 341 320 305 298 272 256 263 266 268 279 292 302 308 306 298 285 265 254 250 252 261 289 310 309 301 295 294 298 301 300 301 303 303 302 300 298 298 299 299 298 297 297 297 298 298 296 294 295 296 296 295 294 294 295
200 206 213 220 232 249 242 228 239 252 266 274 255 236 241 251 240 252 268 264 256 260 271 286 94 94 84 71 63 34 325 316 322 296 268 260 253 247 245 249 262 279 286 296 298 292 298 303 296 283 275 351 3 344 329 320 314 313 313 312 308 303 302 304 303 301 299 298 299 301 301 301 301 301 300 300 299 298 297 298 298 297 296 295 293 292
200 204 216 228 230 230 227 230 250 287 292 272 264 271 139 192 211 227 261 260 256 249 167 128 114 100 85 85 63 299 286 348 331 295 268 255 241 232 233 239 250 269 279 288 294 297 308 320 337 7 24 17 358 343 333 326 324 322 318 314 310 305 304 304 301 299 299 299 301 303 303 304 304 303 303 303 301 300 299 299 298 297 296 294 292 290
204 202 202 226 240 231 241 252 257 272 272 253 223 222 161 127 113 90 278 276 305 326 127 126 122 109 88 78 276 281 20 18 314 285 285 270 210 204 234 244 245 262 286 300 310 333 1 10 19 22 10 358 354 346 335 329 326 325 320 316 312 309 307 305 302 302 303 303 304 305 305 306 306 304 303 302 300 300 299 298 298 297 296 295 292 289
194 205 192 215 246 237 240 252 246 252 263 201 170 188 178 135 70 27 351 294 261 64 100 110 122 129 125 225 256 211 120 282 276 273 266 215 195 211 224 228 238 265 298 321 350 36 30 7 4 6 358 356 358 350 335 329 327 326 322 317 315 313 310 308 308 308 308 306 307 307 307 306 305 304 302 301 300 300 300 299 299 298 297 295 292 290
130 197 189 209 234 232 233 245 243 250 260 193 177 191 185 138 72 28 314 271 202 174 135 120 142 171 170 209 235 202 191 221 244 254 244 240 276 279 254 239 240 252 43 90 76 21 4 359 1 3 360 359 354 342 333 329 328 328 325 320 319 316 314 313 313 311 309 309 309 308 307 306 305 303 302 301 301 300 299 299 298 297 296 295 293 291
150 203 212 215 228 231 234 245 250 250 242 212 209 218 180 95 58 288 263 251 183 199 195 151 177 208 194 199 223 217 217 226 234 250 266 284 297 289 273 262 236 132 116 109 56 358 355 1 4 4 359 347 337 333 331 330 331 331 327 324 321 317 316 314 313 312 311 310 310 308 308 308 306 304 303 302 301 300 298 297 297 296 296 295 294 292
146 148 239 226 226 228 231 241 256 264 237 171 205 263 161 108 162 239 237 186 172 202 215 190 203 219 203 204 219 223 237 248 248 262 279 283 276 273 274 267 137 111 102 65 20 2 351 354 359 354 336 330 332 333 332 332 333 331 327 323 320 317 316 315 314 314 313 311 310 310 310 309 307 306 304 303 302 300 297 297 297 295 295 295 294 293
170 166 230 223 207 210 231 236 241 261 240 137 119 334 215 184 207 201 174 186 191 197 210 214 219 223 214 220 230 232 243 254 256 261 267 266 269 275 267 166 120 106 77 35 17 352 338 345 350 339 328 329 331 332 334 333 331 329 325 320 318 318 318 316 316 315 313 311 311 311 311 310 309 308 306 305 303 300 297 297 297 296 296 295 295 294
200 175 209 228 190 175 212 228 210 210 206 160 152 185 217 220 212 164 155 201 212 201 205 218 231 229 215 215 231 236 239 248 253 256 258 265 272 263 155 128 120 106 93 88 55 348 339 339 335 328 325 327 330 331 334 333 329 324 320 317 319 321 319 317 316 314 312 312 312 312 312 311 310 309 308 306 304 300 297 297 297 296 296 295 294 293
215 196 206 234 229 195 209 237 233 232 238 186 171 192 221 244 248 204 178 197 218 216 213 216 232 237 222 215 229 237 240 248 251 251 255 262 255 186 145 132 114 105 100 84 21 339 334 332 328 324 323 324 328 330 331 331 327 320 316 319 321 320 317 316 316 314 313 313 312 312 313 311 310 309 307 306 304 300 298 298 297 296 296 295 293 290
226 224 220 234 255 258 249 251 264 280 271 247 218 208 215 234 246 231 214 226 235 229 219 210 216 228 223 214 217 230 243 249 255 262 261 250 206 152 136 119 102 92 70 27 346 327 326 327 325 323 323 323 326 328 328 328 325 318 316 319 319 317 316 316 315 314 313 312 312 312 312 310 309 308 307 306 304 301 299 299 298 296 295 294 291 287
237 242 242 239 253 265 253 236 239 252 256 255 251 240 232 238 244 236 227 231 230 222 216 211 213 215 207 195 199 222 243 247 251 261 259 237 179 129 106 102 96 77 32 359 333 321 322 325 324 323 324 322 325 327 325 324 322 319 317 316 315 315 316 315 315 313 312 312 312 311 311 309 307 308 308 308 307 304 301 299 296 294 292 290 288 287
229 230 236 235 238 245 244 238 241 249 253 254 252 246 241 243 243 239 234 228 222 220 214 204 197 192 186 194 208 222 237 241 241 248 249 206 124 102 98 100 93 48 340 324 319 317 321 323 321 321 320 319 321 324 322 321 321 320 317 315 315 317 317 315 314 312 311 311 311 310 309 308 308 308 307 306 305 302 299 297 294 291 287 286 285 284
229 232 236 232 235 248 251 240 242 253 259 257 250 244 242 243 243 243 242 239 240 240 222 199 190 185 188 208 214 212 229 238 229 213 201 167 121 104 104 97 12 316 311 313 312 314 318 318 317 316 316 316 319 320 319 319 319 318 316 316 318 319 317 314 313 311 310 310 309 308 309 308 307 306 304 303 302 299 296 294 292 289 287 285 283 281
234 242 247 246 245 250 247 232 230 241 251 252 249 244 239 237 237 238 237 237 239 229 202 190 201 200 198 210 206 199 217 228 193 153 161 157 128 106 85 348 316 308 308 309 309 312 315 315 314 313 313 314 317 318 317 317 318 317 317 319 321 320 316 314 313 311 309 309 308 308 309 308 305 303 302 301 300 298 297 294 291 289 289 289 288 286
231 236 238 241 244 245 241 229 218 224 240 247 249 249 240 224 220 226 229 229 228 216 195 190 202 209 210 209 199 193 197 188 151 141 145 136 123 117 337 314 306 305 307 307 309 312 314 313 313 313 313 314 316 316 315 315 315 316 319 321 322 319 316 313 311 308 307 307 307 307 307 305 302 301 300 299 299 299 298 297 296 294 292 290 291 292